View from above orbital plane
|
View from above satellite
|
Ground track
|
The orbit data is extracted from the following two-line orbital elements,
1 12646U 81075B 21019.20047328 .00000001 00000-0 -56078-5 0 9992
2 12646 81.2250 59.6607 0067300 202.5899 220.3356 14.15906945 37480
Epoch (UTC): | 19 January 2021 04:48:40 |
Eccentricity: | 0.0067300 |
inclination: | 81.2250° |
perigee height: | 790 km |
apogee height: | 888 km |
right ascension of ascending node: | 59.6607° |
argument of perigee: | 202.5899° |
revolutions per day: | 14.15906945 |
mean anomaly at epoch: | 220.3356° |
orbit number at epoch: | 3748 |
The dashed part of the orbit path shows where the satellite is in the earth's shadow,
|
|